Voltar ao catálogo

BEIDOU 5

AtivoNavegaçãoGEO
NORAD 36828·PAYLOAD·🇨🇳 China

Lançado Jul 31, 2010 de Xichang Satellite Launch Center

Loading…

TLE

AtualizadoSource: Space-Track

Época: Sep 13, 2026, 16:04 UTC

1 36828U 10036A   26256.66970757 -.00000130  00000-0  00000-0 0  9990
2 36828  54.3037 162.1610 0058541 217.4777 320.7749  1.00289463 58981

Acompanhe BEIDOU 5 em tempo real com AllMySat

Download on the App Store